Akoren, Turkey

3:44 PM +03 on February 27, 2017 (GMT +0300)
Corlu Air Base

Weather History for LTBU - December, 2013

Change the Weather History Date:

Monday, December 9, 2013

  Actual Average (LTBA) Record (LTBA)
Temperature  
Mean Temperature 39 °F -  
Max Temperature 48 °F 49 °F 62 °F (2010)
Min Temperature 30 °F 42 °F 33 °F (1998)
Degree Days  
Heating Degree Days 26    
Moisture  
Dew Point 32 °F    
Average Humidity 73    
Maximum Humidity 93    
Minimum Humidity 54    
Precipitation  
Precipitation 0.00 in - - ()
Sea Level Pressure  
Sea Level Pressure 30.28 in    
Wind  
Wind Speed 7 mph ()    
Max Wind Speed 18 mph    
Max Gust Speed -    
Visibility 6.0 miles    
Events      
Averages and records for this station are not official NWS values.
T = Trace of Precipitation, MM = Missing Value Source: Averaged Metar Reports

Daily Weather History Graph

Daily Weather History Graph

Search for Another Location

Airport or City:

Trip Planner

Search our weather history database for the weather conditions in past years. The results will help you decide how hot, cold, wet, or windy it might be!

Date:

Astronomy

Dec. 09, 2013 Rise Set
Actual Time 7:21 AM EET 4:39 PM EET
Civil Twilight 6:50 AM EET 5:10 PM EET
Nautical Twilight 6:16 AM EET 5:45 PM EET
Astronomical Twilight 5:42 AM EET 6:18 PM EET
Moon 12:01 PM EET (12/9) No Moon Set
Length of Visible Light 10h 19m
Length of Day
9h 17m
Waxing Crescent, 47% of the Moon is Illuminated
Dec 9
Waxing Crescent
Dec 9
First Quarter
Dec 17
Full
Dec 25
Last Quarter
Jan 1
New

Hourly Weather History & Observations

Time (EET) Temp. Windchill Dew Point Humidity Pressure Visibility Wind Dir Wind Speed Gust Speed Precip Events Conditions
12:20 AM 37.4 °F 32.8 °F 26.6 °F 65% 30.39 in 6.2 mi North 5.8 mph - N/A   Mostly Cloudy
12:50 AM 35.6 °F 30.7 °F 26.6 °F 70% 30.39 in 6.2 mi North 5.8 mph - N/A   Mostly Cloudy
1:20 AM 35.6 °F 30.7 °F 26.6 °F 70% 30.39 in 6.2 mi NW 5.8 mph - N/A   Mostly Cloudy
1:50 AM 35.6 °F 30.7 °F 26.6 °F 70% 30.42 in 6.2 mi NNW 5.8 mph - N/A   Mostly Cloudy
2:20 AM 35.6 °F 29.9 °F 26.6 °F 70% 30.42 in 6.2 mi North 6.9 mph - N/A   Mostly Cloudy
2:50 AM 35.6 °F 29.9 °F 26.6 °F 70% 30.42 in 6.2 mi North 6.9 mph - N/A   Mostly Cloudy
3:20 AM 33.8 °F 27.7 °F 26.6 °F 75% 30.42 in 6.2 mi North 6.9 mph - N/A   Mostly Cloudy
3:50 AM 32.0 °F 28.7 °F 26.6 °F 80% 30.39 in 6.2 mi NNE 3.5 mph - N/A   Mostly Cloudy
4:20 AM 33.8 °F 30.8 °F 26.6 °F 75% 30.39 in 6.2 mi NNE 3.5 mph - N/A   Scattered Clouds
4:50 AM 32.0 °F 26.4 °F 26.6 °F 80% 30.39 in 6.2 mi NE 5.8 mph - N/A   Mostly Cloudy
5:20 AM 32.0 °F 27.5 °F 28.4 °F 87% 30.39 in 6.2 mi North 4.6 mph - N/A   Mostly Cloudy
5:50 AM 32.0 °F - 28.4 °F 87% 30.39 in 6.2 mi NNW 2.3 mph - N/A   Mostly Cloudy
6:20 AM 32.0 °F 28.7 °F 28.4 °F 87% 30.39 in 6.2 mi West 3.5 mph - N/A   Mostly Cloudy
6:50 AM 33.8 °F - 28.4 °F 81% 30.39 in 6.2 mi WNW 1.2 mph - N/A   Scattered Clouds
7:20 AM 32.0 °F - 26.6 °F 80% 30.39 in 5.0 mi Variable 1.2 mph - N/A   Scattered Clouds
7:50 AM 30.2 °F - 28.4 °F 93% 30.39 in 5.0 mi Variable 1.2 mph - N/A   Scattered Clouds
8:20 AM 33.8 °F - 30.2 °F 87% 30.39 in 4.3 mi West 2.3 mph - N/A   Scattered Clouds
8:50 AM 41.0 °F - 32.0 °F 70% 30.39 in 3.7 mi Calm Calm - N/A   Scattered Clouds
9:20 AM 41.0 °F - 30.2 °F 65% 30.39 in 5.0 mi South 2.3 mph - N/A   Scattered Clouds
9:50 AM 42.8 °F 39.3 °F 33.8 °F 70% 30.39 in 5.0 mi South 5.8 mph - N/A   Scattered Clouds
10:20 AM 44.6 °F 40.2 °F 33.8 °F 66% 30.36 in 5.0 mi South 8.1 mph - N/A   Scattered Clouds
10:50 AM 46.4 °F 41.9 °F 32.0 °F 57% 30.36 in 6.2 mi South 9.2 mph - N/A   Scattered Clouds
11:20 AM 48.2 °F - 32.0 °F 54% 30.33 in 6.2 mi SSW 10.4 mph - N/A   Scattered Clouds
11:50 AM 46.4 °F 40.1 °F 35.6 °F 66% 30.33 in 6.2 mi SW 15.0 mph - N/A   Scattered Clouds
12:50 PM 46.4 °F 39.8 °F 33.8 °F 62% 30.30 in 6.2 mi SSW 16.1 mph - N/A   Scattered Clouds
1:20 PM 46.4 °F 39.5 °F 32.0 °F 57% 30.27 in 6.2 mi SW 17.3 mph - N/A   Scattered Clouds
1:50 PM 48.2 °F - 33.8 °F 58% 30.27 in 6.2 mi SW 16.1 mph - N/A   Scattered Clouds
2:20 PM 46.4 °F 39.2 °F 33.8 °F 62% 30.24 in 6.2 mi SSW 18.4 mph - N/A   Scattered Clouds
2:50 PM 46.4 °F 39.2 °F 33.8 °F 62% 30.24 in 6.2 mi SSW 18.4 mph - N/A   Scattered Clouds
3:20 PM 46.4 °F 40.4 °F 35.6 °F 66% 30.24 in 6.2 mi SSW 13.8 mph - N/A   Scattered Clouds
3:50 PM 46.4 °F 41.1 °F 35.6 °F 66% 30.21 in 6.2 mi SSW 11.5 mph - N/A   Scattered Clouds
4:20 PM 44.6 °F 40.2 °F 33.8 °F 66% 30.21 in 6.2 mi SSW 8.1 mph - N/A   Scattered Clouds
4:50 PM 42.8 °F 38.0 °F 35.6 °F 76% 30.21 in 6.2 mi SSW 8.1 mph - N/A   Scattered Clouds
5:20 PM 41.0 °F 34.7 °F 33.8 °F 76% 30.18 in 6.2 mi SW 10.4 mph - N/A   Scattered Clouds
5:50 PM 41.0 °F 35.2 °F 35.6 °F 81% 30.18 in 6.2 mi SSW 9.2 mph - N/A   Scattered Clouds
6:20 PM 41.0 °F 35.2 °F 35.6 °F 81% 30.18 in 6.2 mi SW 9.2 mph - N/A   Scattered Clouds
6:50 PM 41.0 °F 34.7 °F 37.4 °F 87% 30.15 in 6.2 mi WSW 10.4 mph - N/A   Scattered Clouds
7:20 PM 42.8 °F 37.0 °F 37.4 °F 81% 30.15 in 6.2 mi SW 10.4 mph - N/A   Scattered Clouds
7:50 PM 42.8 °F 37.0 °F 39.2 °F 87% 30.15 in 6.2 mi SW 10.4 mph - N/A   Scattered Clouds
8:20 PM 42.8 °F 37.0 °F 37.4 °F 81% 30.15 in 6.2 mi WSW 10.4 mph - N/A   Scattered Clouds
8:50 PM 44.6 °F 38.8 °F 37.4 °F 76% 30.12 in 6.2 mi WSW 11.5 mph - N/A   Scattered Clouds
9:20 PM 44.6 °F 37.2 °F 37.4 °F 76% 30.12 in 6.2 mi WSW 17.3 mph - N/A   Scattered Clouds
9:50 PM 44.6 °F 38.4 °F 35.6 °F 71% 30.12 in 6.2 mi WSW 12.7 mph - N/A   Scattered Clouds
10:20 PM 42.8 °F 35.8 °F 35.6 °F 76% 30.12 in 6.2 mi WSW 13.8 mph - N/A   Scattered Clouds
10:50 PM 42.8 °F 37.0 °F 35.6 °F 76% 30.09 in 6.2 mi WSW 10.4 mph - N/A   Scattered Clouds
11:20 PM 44.6 °F 37.4 °F 37.4 °F 76% 30.09 in 6.2 mi WSW 16.1 mph - N/A   Mostly Cloudy
11:50 PM 44.6 °F 37.8 °F 37.4 °F 76% 30.09 in 6.2 mi WSW 15.0 mph - N/A   Mostly Cloudy